Regional Weather Roundup
Issued by NWS Charleston, SC

Current Version | Previous Version | Text Only | Print | Product List | Glossary Off
Versions: 1 2 3 4 5 6 7 8 9 10 11 12 13 14 15 16 17 18 19 20 21 22 23 24 25 26 27 28 29 30 31 32 33 34 35 36 37 38 39 40 41 42 43 44 45 46 47 48 49 50

000
ASUS42 KCHS 280113
RWRCHS

REGIONAL WEATHER ROUNDUP
NATIONAL WEATHER SERVICE CHARLESTON SC
900 PM EDT FRI MAY 27 2016

NOTE: "FAIR" INDICATES FEW OR NO CLOUDS BELOW 12,000 FEET WITH NO
SIGNIFICANT WEATHER AND/OR OBSTRUCTIONS TO VISIBILITY.

NOT ALL STATIONS ARE QUALITY CONTROLLED. USE DATA WITH CAUTION...
ESPECIALLY DEWPOINT OBSERVATIONS.

SCZ027-030-031-034>040-042>050-280200-
...SOUTHEAST SOUTH CAROLINA...

CITY           SKY/WX    TMP DP  RH WIND       PRES   REMARKS
N CHARLESTON   PTCLDY    75  62  64 E7        30.08S
WATERFRONT PRK   N/A     76  67  73 E8        30.05S
MOUNT PLEASANT FAIR      73  64  73 CALM      30.08S
JOHNS ISLAND   FAIR      73  66  78 NE6       30.08S
PINOPOLIS        N/A     79  63  57 VRB3      29.99F
MONCKS CORNER  FAIR      72  57  60 CALM      30.08S
SUMMERVILLE    FAIR      77  63  61 E5        30.09R
BEAUFORT MCAS  CLEAR     75  65  70 E6        30.07S
BEAUFORT ARPT  FAIR      73  64  73 E6        30.07S
HILTON HEAD IS CLEAR     75  68  78 NE8       30.08S
WALTERBORO     CLEAR     73  61  64 E3        30.08S
ALLENDALE      FAIR      75  61  60 SE6       30.07R

...SOUTHERN MIDLANDS AND PEE DEE...

CITY           SKY/WX    TMP DP  RH WIND       PRES   REMARKS
GEORGETOWN     MOCLDY    72  61  68 NE3       30.10S
KINGSTREE      FAIR      72  55  56 E6        30.10R
ORANGEBURG     CLEAR     76  59  55 SE6       30.08R
BARNWELL       FAIR      81  64  57 S8        30.08R
AIKEN          FAIR      77  57  50 E3        30.10R
MANNING        FAIR      72  57  60 SE3       30.09R
COLUMBIA       PTCLDY    80  54  40 SE8       30.07R
SUMTER         CLEAR     76  51  41 SE6       30.06R
FLORENCE       CLEAR     75  55  49 SE8       30.10R
MYRTLE BEACH   CLEAR     75  61  60 E9        30.11F
N MYRTLE BEACH CLEAR     75  65  70 E7        30.10S

$$

GAZ063-065-086>088-099>101-113>116-118-119-134>141-150-280200-
...SOUTHEAST GEORGIA...

CITY           SKY/WX    TMP DP  RH WIND       PRES   REMARKS
SAVANNAH ARPT  PTCLDY    75  64  68 E9        30.07R
HUNTER AAF     CLEAR     74  68  80 E7        30.05R
FORT STEWART   CLEAR     73  65  74 CALM      30.05R
STATESBORO     CLEAR     76  65  70 SE3       30.08R
SYLVANIA       CLEAR     76  62  62 CALM      30.08R
CLAXTON        FAIR      74  65  75 E3        30.07R

...CSRA...CENTRAL AND FAR SOUTHEAST GEORGIA...

CITY           SKY/WX    TMP DP  RH WIND       PRES   REMARKS
THOMSON        CLEAR     77  66  68 CALM      30.10R
AUGUSTA-BUSH   CLEAR     73  61  65 SE6       30.05R
AUGUSTA-DANIEL CLEAR     81  59  47 SE5       30.06R
SWAINSBORO     FAIR      79  57  47 SE7       30.07R
VIDALIA        CLEAR     75  61  60 SE6       30.07R
EASTMAN        FAIR      78  58  49 SE3       30.06R
HAZLEHURST     FAIR      79  62  56 E5        30.04R
ALMA           CLEAR     76  63  64 E6        30.05R
WAYCROSS       MOCLDY    76  64  66 E8        30.04F
JESUP          FAIR      70  63  78 E3        30.06S
BAXLEY         FAIR      77  64  65 E5        30.05R
BRUNSWICK      PTCLDY    77  70  78 NE5       30.06S
SAINT SIMONS   CLEAR     76  65  68 E7        30.05R

$$

SCZ027-028-034-036>038-045-046-048>050-GAZ119-141-280200-
...LAKE AND SUPPLEMENTAL COASTAL OBSERVATIONS...

STATION/POSITION TIME  TEMP    WIND        PRES    WAVE   SWELL
                       AIR SEA DIR/SP/G            HT/PER HT/PER/DIR
                 (UTC) (F)     (DEG/KT/KT) (MB)    (FT/S) (FT/S/D)
WINYAH BAY       NOT AVBL
LAKE MURRAY      0000   82     130/  6/ 10 1016.9R
ACE BASIN NERRS  NOT AVBL
FORT PULASKI     0000      77              1018.4R
SAPELO ISLAND    0000   77      60/  8     1017.0S

$$

ANZ835-935-AMZ111-154-330-350-352-354-370-450-454-472-280200-
...C-MAN AND BUOY OBSERVATIONS...

STATION/POSITION TIME  TEMP    WIND        PRES    WAVE   SWELL
                       AIR SEA DIR/SP/G            HT/PER HT/PER/DIR
                 (UTC) (F)     (DEG/KT/KT) (MB)    (FT/S) (FT/S/D)
BUOY 41004       0050   76 76   60/ 14/ 14 1017.6S   3/ 8   2/ 8
BUOY 41008       0050   76 77   70/ 14/ 16 1017.4R   4/ 6   2/120/ 7
FOLLY BEACH CMAN 0100   75      70/ 15/ 16 1018.7R
CAPERS NEARSHORE 0008   76 76   70/ 14/ 19 1018.2F
FRIPP NEARSHORE  0008   76 77   80/ 16/ 19 1017.6R


STATION/POSITION TIME  TEMP    WIND        PRES    WAVE   SWELL
                       AIR SEA DIR/SP/G            HT/PER HT/PER/DIR
                 (UTC) (F)     (DEG/KT/KT) (MB)    (FT/S) (FT/S/D)
5E ST. MARYS GA  0101      78                N/A     4/ 6
FRYING PAN BUOY  0000   77 76   80/ 12/ 14 1018.9R
BUOY 41025       0050   76 78  150/ 10/ 12 1020.8S   3/ 8   2/120/ 8
CAPE LOOKOUT NC  0000   74     110/  6/  7 1019.9F
BUOY 41002       0050   78 77   80/ 21/ 27 1017.1F   6/ 6   3/110/ 9
BUOY 41010       0020   77 78   40/ 14/ 16 1014.9R
ST AUGUSTINE FL  0100   77 80   80/ 11/ 12 1017.5R


$$




USA.gov is the U.S. government's official web portal to all federal, state and local government web resources and services.